Regional Weather Roundup
Issued by NWS

Home | Current Version | Previous Version | Text Only | Print | Product List | Glossary Off
Versions: 1 2 3 4 5 6 7 8 9 10 11 12 13 14 15 16 17 18 19 20 21 22 23 24 25 26 27 28 29 30 31 32 33 34 35 36 37 38 39 40 41 42 43 44 45 46 47 48 49 50

000
ASUS43 KMKX 251500
RWRWI

WISCONSIN REGIONAL WEATHER ROUNDUP
NATIONAL WEATHER SERVICE MILWAUKEE/SULLIVAN WI
900 AM CST SUN FEB 25 2018

NOTE: "FAIR" INDICATES FEW OR NO CLOUDS BELOW 12,000 FEET WITH NO
SIGNIFICANT WEATHER AND/OR OBSTRUCTIONS TO VISIBILITY.

WIZ001-002-006>008-014>016-023>028-251600-
NORTHWEST WISCONSIN

CITY           SKY/WX    TMP DP  RH WIND       PRES   REMARKS
SUPERIOR ARPT  CLOUDY    25  19  77 W16G22    29.48R WCI  12
ASHLAND        CLOUDY    24  18  77 SW21G32   29.46R WCI   9
HAYWARD        MIX PCPN  22  18  85 SW13G22   29.52R WCI  10
SIREN          CLOUDY    22  19  87 W15G21    29.57R WCI   9
CUMBERLAND     CLOUDY    19  18  93 SW14G22   29.57R WCI   6
RICE LAKE      CLOUDY    20  18  89 SW14G20   29.60R WCI   7
CHETEK         CLOUDY    19  17  88 W7        29.61R WCI  10
LADYSMITH      CLOUDY    20  17  88 SW17G25   29.58R FOG     WCI   5
EAU CLAIRE     NOT AVBL
MENOMONIE      CLOUDY    21  16  82 SW16      29.65S WCI   7
NEW RICHMOND   CLOUDY    19  15  84 SW16      29.64R WCI   5
OSCEOLA        CLOUDY    21  21 100 SW16G22   29.66R WCI   7
$$

WIZ003>005-009-010-017-018-251600-
NORTH CENTRAL WISCONSIN

CITY           SKY/WX    TMP DP  RH WIND       PRES   REMARKS
MANITOWISH WTR LGT SNOW  22  20  91 W20G25    29.41R WCI   7
ARBOR VITAE    LGT SNOW  22  19  89 W20G29    29.43R WCI   7
WOODRUFF       LGT SNOW  22  19  89 W20G29    29.43R WCI   7
RHINELANDER    LGT SNOW  20  17  88 W21G32    29.47R VSB 1   WCI   4
EAGLE RIVER    LGT SNOW  21  18  88 W18G30    29.42R WCI   6
LAND O LAKES   LGT SNOW  25  21  84 W14G22    29.38R WCI  13
PHILLIPS       LGT SNOW  18  16  92 SW14G25   29.50R WCI   4
TOMAHAWK       LGT SNOW  19  15  85 W15G22    29.52R WCI   5
MEDFORD        LGT SNOW  17  14  88 W21G32    29.55R WCI   0
MERRILL        LGT SNOW  20  16  85 W15       29.55R WCI   6
$$

WIZ029-030-035-036-043>047-251600-
CENTRAL WISCONSIN

CITY           SKY/WX    TMP DP  RH WIND       PRES   REMARKS
WAUSAU         CLOUDY    21  17  84 W17G31    29.56R FOG     WCI   7
MOSINEE        CLOUDY    19  18  93 SW22      29.58R FOG     WCI   3
MARSHFIELD     CLOUDY    21  17  84 W16G28    29.60R WCI   7
STEVENS POINT  CLOUDY    20  18  91 W13G18    29.61R WCI   7
WAUPACA        CLOUDY    27  19  74 SW23G29   29.63R WCI  12
WAUTOMA        CLOUDY    25  19  78 MISG      29.68R
WISC RAPIDS    CLOUDY    21  16  81 MISG      29.67R
CAMP DOUGLAS   NOT AVBL
$$

WIZ011>013-019>022-031-037>040-048>050-251600-
NORTHEAST WISCONSIN

CITY           SKY/WX    TMP DP  RH WIND       PRES   REMARKS
ANTIGO         CLOUDY    19  16  88 W22G37    29.50R FOG     WCI   3
SHAWANO        CLOUDY    27  20  75 W17G28    29.57R WCI  14
OCONTO         CLOUDY    27  20  75 W16G33    29.53R WCI  15
STURGEON BAY   CLOUDY    28  21  75 SW28G39   29.52R WCI  13
GREEN BAY      CLOUDY    28  18  66 SW23G33   29.60R WCI  14
MANITOWOC      FAIR      29  20  69 W32G44    29.61R WCI  13
APPLETON       PTSUNNY   27  18  69 W25       29.61R WCI  11
CLINTONVILLE   CLOUDY    26  19  76 W18G26    29.60R WCI  12
OSHKOSH        FAIR      27  19  72 SW13G24   29.66R WCI  16
$$

WIZ032>034-041-042-053>061-251600-
SOUTHWEST WISCONSIN

CITY           SKY/WX    TMP DP  RH WIND       PRES   REMARKS
LA CROSSE      FAIR      24  17  74 SW14G21   29.76R WCI  12
SPARTA         CLOUDY    23  19  86 SW14G21   29.73R WCI  10
VIROQUA        CLOUDY    21  20  96 SW14      29.73R WCI   8
BOSCOBEL       PTSUNNY   26  18  71 SW10G23   29.81R WCI  16
PRAIRIE DU CHI FAIR      24  16  71 SW13      29.82S WCI  13
PLATTEVILLE    PTSUNNY   24  21  88 W18G28    29.82R WCI  10
$$

WIZ056-057-062-063-064-067-068-251600-
SOUTH CENTRAL WISCONSIN

CITY           SKY/WX    TMP DP  RH WIND       PRES   REMARKS
REEDSBURG      CLOUDY    24  19  79 SW13G18   29.74R WCI  13
BARABOO/DELLS  CLOUDY    24  18  79 W14G22    29.73R WCI  11
LONE ROCK      NOT AVBL
MINERAL POINT  PTSUNNY   27  25  93 SW14G21   29.77R WCI  15
MADISON        FAIR      26  19  74 SW12G28   29.77R WCI  16
MIDDLETON      FAIR      28  22  76 SW16G23   29.76R WCI  17
WATERTOWN      FAIR      29  22  75 SW16G24   29.72R WCI  17
MONROE         CLOUDY    28  23  80 W18G26    29.78R WCI  16
JANESVILLE     MOSUNNY   30  25  80 W17G29    29.79R WCI  18
$$

WIZ051-052-058>065-066-070>072-251600-
SOUTHEAST WISCONSIN

CITY           SKY/WX    TMP DP  RH WIND       PRES   REMARKS
MILWAUKEE      FAIR      33  22  63 W22G38    29.74R WCI  21
WAUKESHA       MOSUNNY   28  21  74 SW15G24   29.74R WCI  17
MILWAUKEE/TIMM MOSUNNY   32  19  59 W20G31    29.73R WCI  20
RACINE         FAIR      34  24  67 W20G31    29.77R WCI  23
BURLINGTON     FAIR      31  23  70 W16G29    29.77R WCI  20
KENOSHA        FAIR      34  23  64 W24G39    29.77R WCI  21
FOND DU LAC    FAIR      28  18  66 W15G31    29.68R WCI  16
SHEBOYGAN      FAIR      30  22  72 W22G37    29.66R WCI  17
WEST BEND      FAIR      30  23  74 W21G36    29.68R WCI  17
JUNEAU         PTSUNNY   27  21  77 SW22G29   29.72R WCI  13
$$

LSZ147-162-251600-
LAKE SUPERIOR

STATION/POSITION TIME  TEMP    WIND        PRES    WAVE
                       AIR SEA DIR/SP/G            HT/PER
                 (UTC) (F)     (DEG/KT/KT) (MB)    (FT/S)
DEVILS ISLAND    1400   27     250/ 31/ 39  994.3R
SAXON HARBOR     1440   26     220/ 11/ 22  996.6R
$$

LMZ867-665-643>646-251600-
LAKE MICHIGAN

STATION/POSITION TIME  TEMP    WIND        PRES    WAVE
                       AIR SEA DIR/SP/G            HT/PER
                 (UTC) (F)     (DEG/KT/KT) (MB)    (FT/S)
NORTHPORT PIER   1440   28                  998.3R
KEWAUNEE LAKESHO 1430   29     270/ 20/ 28 1000.5R
SHEBOYGAN LAKESH 1400   30     250/ 19/ 25 1003.7R
PORT WASHINGTON  1440   32     260/ 16/ 29 1006.4R
KENOSHA   LAKESH 1400   33     250/ 13/ 31 1007.5
$$

TC  - TEMPERATURE IN CELSIUS
VSB - VISIBILITY IN STATUTE MILES
WCI - WIND CHILL INDEX
HX  - HEAT INDEX





USA.gov is the U.S. government's official web portal to all federal, state and local government web resources and services.